Weather History for Indianapolis, IN

Change the Weather History Date:

Friday, July 19, 2013

  Actual Average Record
Temperature  
Mean Temperature 84 °F 75 °F  
Max Temperature 92 °F 85 °F 98 °F (1930)
Min Temperature 76 °F 66 °F 50 °F (1984)
Degree Days  
Heating Degree Days 0 0  
Month to date heating degree days 0 0  
Since 1 June heating degree days 9 16  
Since 1 July heating degree days 0 0  
Cooling Degree Days 19 10  
Month to date cooling degree days 213 205  
Year to date cooling degree days 568 515  
Since 1 June cooling degree days 439 431  
Growing Degree Days 33 (Base 50)    
Moisture  
Dew Point 72 °F    
Average Humidity 68    
Maximum Humidity 87    
Minimum Humidity 49    
Precipitation  
Precipitation 0.00 in 0.14 in 1.31 in (1880)
Month to date precipitation 1.25 2.98  
Year to date precipitation 26.74 24.63  
Snow  
Snow 0.00 in 0.00 in 0.00 in ()
Month to date snowfall 0.0 0.0  
Since 1 June snowfall 0.0 0.0  
Since 1 July snowfall 0.0 0.0  
Snow Depth 0.00 in    
Sea Level Pressure  
Sea Level Pressure 29.95 in    
Wind  
Wind Speed 11 mph (SW)    
Max Wind Speed 21 mph    
Max Gust Speed 26 mph    
Visibility 8 miles    
Events      
T = Trace of Precipitation, MM = Missing Value Source: NWS Daily Summary

Daily Weather History Graph

Daily Weather History Graph

Search for Another Location

Airport:

Trip Planner

Search our weather history database for the weather conditions in past years. The results will help you decide how hot, cold, wet, or windy it might be!

Date:

Astronomy

Jul. 19, 2013 Rise Set
Actual Time 6:33 AM EDT 9:09 PM EDT
Civil Twilight 6:01 AM EDT 9:40 PM EDT
Nautical Twilight 5:22 AM EDT 10:19 PM EDT
Astronomical Twilight 4:38 AM EDT 11:03 PM EDT
Moon 6:11 PM EDT (7/19) 3:13 AM EDT (7/19)
Length of Visible Light 15h 38m
Length of Day
14h 36m
Waxing Gibbous, 86% of the Moon is Illuminated
Jul 19
Waxing Gibbous
Jul 22
Full
Jul 29
Last Quarter
Aug 6
New
Aug 14
First Quarter

Hourly Weather History & Observations

Time (EDT) Temp. Heat Index Dew Point Humidity Pressure Visibility Wind Dir Wind Speed Gust Speed Precip Events Conditions
12:54 AM 79.0 °F - 71.1 °F 77% 30.02 in 10.0 mi SW 4.6 mph - N/A   Clear
1:54 AM 79.0 °F - 72.0 °F 79% 30.01 in 10.0 mi SW 6.9 mph - N/A   Mostly Cloudy
2:54 AM 78.1 °F - 72.0 °F 81% 29.99 in 9.0 mi SW 5.8 mph - N/A   Partly Cloudy
3:54 AM 77.0 °F - 72.0 °F 84% 29.99 in 8.0 mi SW 6.9 mph - N/A   Clear
4:54 AM 78.1 °F - 72.0 °F 81% 29.98 in 7.0 mi SW 8.1 mph - N/A   Clear
5:54 AM 75.9 °F - 72.0 °F 87% 29.98 in 6.0 mi SSW 8.1 mph - N/A   Clear
6:54 AM 75.9 °F - 72.0 °F 87% 29.99 in 4.0 mi SW 6.9 mph - N/A   Partly Cloudy
7:54 AM 78.1 °F - 73.0 °F 84% 29.99 in 4.0 mi SSW 6.9 mph - N/A   Haze
8:54 AM 81.0 °F 85.8 °F 73.0 °F 77% 30.00 in 5.0 mi WSW 9.2 mph - N/A   Haze
9:54 AM 82.9 °F 88.8 °F 73.0 °F 72% 30.00 in 6.0 mi WSW 11.5 mph - N/A   Haze
10:54 AM 86.0 °F 93.0 °F 73.0 °F 65% 30.00 in 7.0 mi SW 13.8 mph - N/A   Scattered Clouds
11:54 AM 88.0 °F 93.8 °F 71.1 °F 57% 29.99 in 9.0 mi SW 12.7 mph - N/A   Scattered Clouds
12:54 PM 88.0 °F 93.8 °F 71.1 °F 57% 29.98 in 9.0 mi WSW 16.1 mph - N/A   Scattered Clouds
1:54 PM 89.1 °F 96.0 °F 72.0 °F 57% 29.96 in 9.0 mi WSW 12.7 mph 17.3 mph N/A   Scattered Clouds
2:54 PM 91.0 °F 96.6 °F 70.0 °F 50% 29.93 in 10.0 mi SW 16.1 mph 20.7 mph N/A   Scattered Clouds
3:54 PM 91.9 °F 97.4 °F 70.0 °F 48% 29.91 in 10.0 mi SW 12.7 mph - N/A   Scattered Clouds
4:54 PM 91.0 °F 95.6 °F 69.1 °F 48% 29.88 in 10.0 mi WSW 15.0 mph 23.0 mph N/A   Scattered Clouds
5:54 PM 90.0 °F 96.4 °F 71.1 °F 54% 29.88 in 10.0 mi SW 13.8 mph - N/A   Scattered Clouds
6:54 PM 88.0 °F 94.7 °F 72.0 °F 59% 29.86 in 10.0 mi SSW 17.3 mph 21.9 mph N/A   Scattered Clouds
7:54 PM 86.0 °F 92.2 °F 72.0 °F 63% 29.86 in 10.0 mi SSW 13.8 mph - N/A   Scattered Clouds
8:54 PM 84.0 °F 89.6 °F 72.0 °F 67% 29.88 in 10.0 mi SSW 10.4 mph - N/A   Scattered Clouds
9:54 PM 82.0 °F 86.3 °F 71.1 °F 69% 29.87 in 10.0 mi SSW 10.4 mph - N/A   Partly Cloudy
10:54 PM 81.0 °F 84.9 °F 71.1 °F 72% 29.88 in 10.0 mi SSW 10.4 mph - N/A   Partly Cloudy
11:54 PM 80.1 °F 83.2 °F 70.0 °F 71% 29.88 in 10.0 mi SSW 11.5 mph - N/A   Clear